This demonstration page uses our WeatherBlox Daily Observations layout. Learn more.

Left ArrowRight Arrow

Hourly Observations for October 7, 2021

Temp ( °F °C ) Dew Point ( °F °C ) Humidity (%) Winds ( mph kmh ) Pressure ( in mb ) Visibility ( mi km ) Precip ( " mm )
12:53 am 00:53 Mostly Clear 71 21.7 42 5.6 35 35 SE 9 15 29.89 1012 10 16 N/A
1:53 am 01:53 Clear 68 20 43 6.1 40 40 SE 7 11 29.89 1012 10 16 N/A
2:53 am 02:53 Clear 65 18.3 43 6.1 45 45 SE 7 11 29.89 1012 10 16 N/A
3:53 am 03:53 Clear 65 18.3 44 6.7 47 47 E 3 6 29.89 1012 10 16 N/A
4:53 am 04:53 Clear 64 17.8 44 6.7 48 48 ESE 8 13 29.89 1012 10 16 N/A
5:53 am 05:53 Clear 66 18.9 45 7.2 47 47 ESE 10 17 29.89 1012 10 16 N/A
6:53 am 06:53 Clear 64 17.8 45 7.2 50 50 SE 8 13 29.91 1013 10 16 N/A
7:53 am 07:53 Sunny 60 15.6 44 6.7 56 56 E 3 6 29.95 1014 10 16 N/A
8:53 am 08:53 Sunny 64 17.8 45 7.2 50 50 N N/A 29.97 1015 10 16 N/A
9:53 am 09:53 Sunny 71 21.7 46 7.8 41 41 SSE 6 9 29.97 1015 8 13 N/A
10:53 am 10:53 Sunny 78 25.6 46 7.8 32 32 VRB 3 6 29.97 1015 10 16 N/A
11:53 am 11:53 Sunny 84 28.9 45 7.2 25 25 VRB 3 6 29.96 1015 10 16 N/A
12:53 pm 12:53 Sunny 89 31.7 46 7.8 23 23 WSW 7 11 29.94 1014 10 16 N/A
1:53 pm 13:53 Sunny 91 32.8 43 6.1 19 19 VRB 5 7 29.91 1013 10 16 N/A
2:53 pm 14:53 Sunny 93 33.9 44 6.7 18 18 S 8 13 29.88 1012 10 16 N/A
3:53 pm 15:53 Sunny 94 34.4 42 5.6 17 17 SW 14 22 29.85 1011 10 16 N/A
4:53 pm 16:53 Sunny 94 34.4 42 5.6 17 17 SW 6 9 29.84 1011 10 16 N/A
5:53 pm 17:53 Sunny 93 33.9 39 3.9 15 15 SSW 8 13 29.83 1010 10 16 N/A
6:53 pm 18:53 Sunny 92 33.3 39 3.9 16 16 SSW 3 6 29.83 1010 10 16 N/A
7:53 pm 19:53 Clear 85 29.4 39 3.9 20 20 SE 8 13 29.85 1011 10 16 N/A
8:53 pm 20:53 Clear 84 28.9 46 7.8 27 27 SSE 12 19 29.87 1012 10 16 N/A
9:53 pm 21:53 Clear 81 27.2 48 8.9 32 32 SSE 14 22 29.88 1012 10 16 N/A
10:53 pm 22:53 Clear 79 26.1 50 10 36 36 SE 13 20 29.89 1012 10 16 N/A
11:53 pm 23:53 Clear 76 24.4 49 9.4 39 39 SE 10 17 29.89 1012 10 16 N/A

Powered by AerisWeather